Winfield, KS

10:07 PM CDT on October 23, 2017 (GMT -0500)
Strother

Weather History for KWLD - May, 2014

Change the Weather History Date:

Sunday, May 4, 2014

  Actual Average Record
Temperature  
Mean Temperature 81 °F -  
Max Temperature 99 °F 73 °F 99 °F (2014)
Min Temperature 63 °F 51 °F 37 °F (2008)
Cooling Degree Days 16    
Growing Degree Days 31 (Base 50)    
Moisture  
Dew Point 38 °F    
Average Humidity 24    
Maximum Humidity 45    
Minimum Humidity 10    
Precipitation  
Precipitation 0.00 in - - ()
Sea Level Pressure  
Sea Level Pressure 29.75 in    
Wind  
Wind Speed 18 mph (South)    
Max Wind Speed 30 mph    
Max Gust Speed 45 mph    
Visibility 10 miles    
Events      
Averages and records for this station are not official NWS values.
T = Trace of Precipitation, MM = Missing Value Source: NWS Daily Summary

Daily Weather History Graph

Daily Weather History Graph

Search for Another Location

Airport or City:

Trip Planner

Search our weather history database for the weather conditions in past years. The results will help you decide how hot, cold, wet, or windy it might be!

Date:

Astronomy

May. 04, 2014 Rise Set
Actual Time 6:30 AM CDT 8:20 PM CDT
Civil Twilight 6:02 AM CDT 8:48 PM CDT
Nautical Twilight 5:27 AM CDT 9:22 PM CDT
Astronomical Twilight 4:51 AM CDT 9:59 PM CDT
Moon 10:55 AM CDT (5/4) 12:25 AM CDT (5/4)
Length of Visible Light 14h 46m
Length of Day
13h 50m
Waxing Crescent, 28% of the Moon is Illuminated
May 4
Waxing Crescent
May 6
First Quarter
May 14
Full
May 21
Last Quarter
May 28
New

Hourly Weather History & Observations

Time (CDT) Temp. Dew Point Humidity Pressure Visibility Wind Dir Wind Speed Gust Speed Precip Events Conditions
12:54 AM 71.1 °F 37.9 °F 30% 29.86 in 10.0 mi South 16.1 mph - N/A   Clear
1:54 AM 69.1 °F 37.9 °F 32% 29.85 in 10.0 mi South 15.0 mph - N/A   Clear
2:54 AM 68.0 °F 37.9 °F 33% 29.84 in 10.0 mi South 15.0 mph - N/A   Clear
3:54 AM 66.0 °F 39.0 °F 37% 29.82 in 10.0 mi South 17.3 mph 25.3 mph N/A   Clear
4:54 AM 64.9 °F 39.0 °F 39% 29.81 in 10.0 mi South 18.4 mph 25.3 mph N/A   Clear
5:54 AM 64.0 °F 39.9 °F 41% 29.80 in 10.0 mi South 16.1 mph - N/A   Clear
6:54 AM 63.0 °F 41.0 °F 45% 29.81 in 10.0 mi South 16.1 mph 23.0 mph N/A   Clear
7:54 AM 66.0 °F 43.0 °F 43% 29.81 in 10.0 mi South 13.8 mph - N/A   Clear
8:54 AM 71.1 °F 43.0 °F 36% 29.80 in 10.0 mi South 11.5 mph - N/A   Clear
9:54 AM 75.9 °F 42.1 °F 30% 29.79 in 10.0 mi SSW 16.1 mph 24.2 mph N/A   Clear
10:54 AM 82.9 °F 41.0 °F 23% 29.78 in 10.0 mi SSW 19.6 mph 27.6 mph N/A   Clear
11:54 AM 87.1 °F 39.0 °F 18% 29.77 in 10.0 mi South 18.4 mph 27.6 mph N/A   Clear
12:54 PM 91.9 °F 39.9 °F 16% 29.75 in 10.0 mi SSW 19.6 mph 26.5 mph N/A   Clear
1:54 PM 96.1 °F 39.0 °F 14% 29.72 in 10.0 mi South 21.9 mph 26.5 mph N/A   Clear
2:54 PM 99.0 °F 35.1 °F 11% 29.69 in 10.0 mi SSW 28.8 mph 41.4 mph N/A   Clear
3:54 PM 99.0 °F 33.1 °F 10% 29.67 in 10.0 mi SSW 28.8 mph 44.9 mph N/A   Clear
4:54 PM 97.0 °F 30.9 °F 10% 29.66 in 10.0 mi SSW 29.9 mph 44.9 mph N/A   Clear
5:54 PM 95.0 °F 36.0 °F 13% 29.66 in 10.0 mi South 19.6 mph 39.1 mph N/A   Clear
6:54 PM 91.9 °F 34.0 °F 13% 29.65 in 10.0 mi South 23.0 mph 34.5 mph N/A   Clear
7:54 PM 88.0 °F 30.9 °F 13% 29.66 in 10.0 mi South 20.7 mph 27.6 mph N/A   Clear
8:54 PM 84.9 °F 32.0 °F 15% 29.66 in 10.0 mi South 18.4 mph 26.5 mph N/A   Clear
9:54 PM 82.9 °F 34.0 °F 17% 29.67 in 10.0 mi South 20.7 mph 28.8 mph N/A   Clear
11:54 PM 80.1 °F 37.9 °F 22% 29.68 in 10.0 mi South 23.0 mph 32.2 mph N/A   Clear